timestamp,surface_pressure_avg,surface_temp_avg,battery_voltage,lat,long
2022-08-19 00:09:00+00:00,224.4131,18.72,11.53,47.84626,-54.09684
2022-08-19 00:19:01+00:00,229.41299999999998,18.8,11.53,47.84626,-54.09684
2022-08-19 00:29:01+00:00,232.2264,18.5,11.53,47.84626,-54.09684
2022-08-19 00:39:01+00:00,230.6948,18.4,11.53,47.84626,-54.09684
2022-08-19 00:49:01+00:00,232.3031,18.29,11.53,47.84626,-54.09684
2022-08-19 00:59:01+00:00,238.5031,18.2,11.53,47.84626,-54.09684
2022-08-19 01:09:01+00:00,239.0597,18.2,11.53,47.84626,-54.09684
2022-08-19 01:19:01+00:00,238.1631,18.25,11.53,47.84626,-54.09684
2022-08-19 01:29:01+00:00,243.3348,18.29,11.53,47.84626,-54.09684
2022-08-19 01:39:01+00:00,247.573,18.2,11.53,47.84626,-54.09684
2022-08-19 01:49:01+00:00,246.8398,18.28,11.53,47.84626,-54.09684
2022-08-19 01:59:01+00:00,249.1131,18.3,11.53,47.84626,-54.09684
2022-08-19 02:09:01+00:00,255.9281,18.3,11.53,47.84626,-54.09684
2022-08-19 02:19:01+00:00,260.8931,18.3,11.53,47.84626,-54.09684
2022-08-19 02:29:01+00:00,265.6831,18.39,11.53,47.84626,-54.09684
2022-08-19 02:39:01+00:00,272.3797,18.4,11.53,47.84626,-54.09684
2022-08-19 02:49:01+00:00,277.2614,18.39,11.53,47.84626,-54.09684
2022-08-19 02:59:01+00:00,282.4647,18.41,11.53,47.84626,-54.09684
2022-08-19 03:09:01+00:00,293.5297,18.18,11.53,47.84626,-54.09684
2022-08-19 03:19:00+00:00,301.623,17.58,11.53,47.84626,-54.09684
2022-08-19 03:29:00+00:00,302.5563,18.02,11.53,47.84626,-54.09684
2022-08-19 03:39:00+00:00,306.463,17.85,11.53,47.84626,-54.09684
2022-08-19 03:49:00+00:00,312.5997,17.6,11.53,47.84626,-54.09684
2022-08-19 03:59:00+00:00,314.223,17.75,11.53,47.84626,-54.09684
2022-08-19 04:09:00+00:00,310.5098,17.7,11.53,47.84626,-54.09684
2022-08-19 04:19:01+00:00,314.0596,16.93,11.53,47.84626,-54.09684
2022-08-19 04:29:01+00:00,315.6895,17.24,11.53,47.84626,-54.09684
2022-08-19 04:39:01+00:00,312.8246,17.41,11.53,47.84626,-54.09684
2022-08-19 04:49:01+00:00,313.0546,17.17,11.53,47.84626,-54.09684
2022-08-19 04:59:01+00:00,315.613,16.7,11.53,47.84626,-54.09684
2022-08-19 05:09:01+00:00,315.7547,17.2,11.53,47.84626,-54.09684
2022-08-19 05:19:00+00:00,311.7047,17.5,11.53,47.84626,-54.09684
2022-08-19 05:29:00+00:00,311.1613,17.1,11.53,47.84626,-54.09684
2022-08-19 05:39:00+00:00,313.5829,17.26,11.53,47.84626,-54.09684
2022-08-19 05:49:00+00:00,310.4197,17.65,11.53,47.84626,-54.09684
2022-08-19 05:59:00+00:00,303.2013,17.8,11.53,47.84626,-54.09684
2022-08-19 06:09:00+00:00,300.7513,17.8,11.53,47.84626,-54.09684
2022-08-19 06:19:00+00:00,304.3847,17.8,11.46,47.84626,-54.09684
2022-08-19 06:29:00+00:00,302.3464,17.9,11.46,47.84626,-54.09684
2022-08-19 06:39:00+00:00,294.498,18.0,11.46,47.84626,-54.09684
2022-08-19 06:49:00+00:00,290.2365,17.96,11.46,47.84626,-54.09684
2022-08-19 06:59:00+00:00,290.4081,17.95,11.46,47.84626,-54.09684
2022-08-19 07:09:00+00:00,286.1164,18.0,11.46,47.84626,-54.09684
2022-08-19 07:19:01+00:00,278.2214,18.07,11.46,47.84626,-54.09684
2022-08-19 07:29:01+00:00,273.4697,18.04,11.46,47.84626,-54.09684
2022-08-19 07:39:01+00:00,270.9814,18.09,11.46,47.84626,-54.09684
2022-08-19 07:49:01+00:00,261.3897,18.37,11.46,47.84626,-54.09684
2022-08-19 07:59:01+00:00,252.523,18.52,11.46,47.84626,-54.09684
2022-08-19 08:09:01+00:00,250.1631,18.5,11.46,47.84626,-54.09684
2022-08-19 08:19:00+00:00,242.8098,18.55,11.46,47.84626,-54.09684
2022-08-19 08:29:00+00:00,234.0831,18.63,11.46,47.84626,-54.09684
2022-08-19 08:39:00+00:00,231.8981,18.69,11.46,47.84626,-54.09684
2022-08-19 08:49:00+00:00,228.4898,18.69,11.46,47.84626,-54.09684
2022-08-19 08:59:00+00:00,218.8781,18.7,11.46,47.84626,-54.09684
2022-08-19 09:09:00+00:00,212.8714,18.7,11.46,47.84626,-54.09684
2022-08-19 09:19:00+00:00,214.0598,18.6,11.46,47.84626,-54.09684
2022-08-19 09:29:00+00:00,213.0531,18.6,11.46,47.84626,-54.09684
2022-08-19 09:39:00+00:00,208.9064,18.67,11.46,47.84626,-54.09684
2022-08-19 09:49:00+00:00,206.3548,18.7,11.46,47.84626,-54.09684
2022-08-19 09:59:00+00:00,206.7265,18.7,11.46,47.84626,-54.09684
2022-08-19 10:09:00+00:00,208.2514,18.75,11.46,47.84626,-54.09684
2022-08-19 10:19:00+00:00,209.7014,18.79,11.46,47.84626,-54.09684
2022-08-19 10:29:00+00:00,209.6248,18.76,11.46,47.84626,-54.09684
2022-08-19 10:39:00+00:00,211.1197,18.7,11.46,47.84626,-54.09684
2022-08-19 10:49:00+00:00,214.5348,18.7,11.46,47.84626,-54.09684
2022-08-19 10:59:00+00:00,218.1481,18.7,11.46,47.84626,-54.09684
2022-08-19 11:09:00+00:00,219.3414,18.7,11.46,47.84626,-54.09684
2022-08-19 11:19:00+00:00,219.5165,18.61,11.46,47.84626,-54.09684
2022-08-19 11:29:00+00:00,220.6998,18.6,11.46,47.84626,-54.09684
2022-08-19 11:39:00+00:00,223.4998,18.6,11.46,47.84626,-54.09684
2022-08-19 11:49:00+00:00,227.4414,18.6,11.46,47.84626,-54.09684
2022-08-19 11:59:00+00:00,232.4531,18.6,11.46,47.84626,-54.09684
2022-08-19 12:09:00+00:00,238.2064,18.6,11.46,47.84626,-54.09684
2022-08-19 12:19:00+00:00,242.2264,18.7,11.53,47.84626,-54.09684
2022-08-19 12:29:00+00:00,244.1897,18.7,11.53,47.84626,-54.09684
2022-08-19 12:39:00+00:00,245.9598,18.6,11.53,47.84626,-54.09684
2022-08-19 12:49:00+00:00,247.1714,18.59,11.53,47.84626,-54.09684
2022-08-19 12:59:00+00:00,246.183,18.58,11.53,47.84626,-54.09684
2022-08-19 13:09:00+00:00,245.8115,18.59,11.53,47.84626,-54.09684
2022-08-19 13:19:01+00:00,246.9831,18.6,11.61,47.84626,-54.09684
2022-08-19 13:29:01+00:00,249.3181,18.6,11.61,47.84626,-54.09684
2022-08-19 13:39:01+00:00,250.6281,18.6,11.61,47.84626,-54.09684
2022-08-19 13:49:01+00:00,253.2564,18.6,11.61,47.84626,-54.09684
2022-08-19 13:59:01+00:00,254.9881,18.5,11.61,47.84626,-54.09684
2022-08-19 14:09:01+00:00,258.9347,18.3,11.61,47.84626,-54.09684
2022-08-19 14:19:00+00:00,262.7664,18.1,11.61,47.84626,-54.09684
2022-08-19 14:29:00+00:00,268.1197,18.09,11.61,47.84626,-54.09684
2022-08-19 14:39:00+00:00,272.2464,18.09,11.61,47.84626,-54.09684
2022-08-19 14:49:00+00:00,277.3531,18.03,11.61,47.84626,-54.09684
2022-08-19 14:59:00+00:00,280.9264,18.0,11.61,47.84626,-54.09684
2022-08-19 15:09:00+00:00,285.0314,17.98,11.61,47.84626,-54.09684
2022-08-19 15:19:00+00:00,291.043,18.0,11.61,47.84626,-54.09684
2022-08-19 15:29:00+00:00,298.9947,17.9,11.61,47.84626,-54.09684
2022-08-19 15:39:00+00:00,304.6813,17.8,11.61,47.84626,-54.09684
2022-08-19 15:49:00+00:00,308.2747,17.8,11.61,47.84626,-54.09684
2022-08-19 15:59:00+00:00,311.6096,17.8,11.61,47.84626,-54.09684
2022-08-19 16:09:00+00:00,314.698,17.86,11.61,47.84626,-54.09684
2022-08-19 16:19:00+00:00,315.4847,17.89,11.7,47.84626,-54.09684
2022-08-19 16:29:00+00:00,316.308,17.9,11.7,47.84626,-54.09684
2022-08-19 16:39:00+00:00,317.2446,17.9,11.7,47.84626,-54.09684
2022-08-19 16:49:00+00:00,318.7247,17.94,11.7,47.84626,-54.09684
2022-08-19 16:59:00+00:00,320.5046,17.97,11.7,47.84626,-54.09684
2022-08-19 17:09:00+00:00,321.9713,17.99,11.7,47.84626,-54.09684
2022-08-19 17:19:00+00:00,323.7047,18.0,11.7,47.84626,-54.09684
2022-08-19 17:29:00+00:00,323.7163,18.0,11.7,47.84626,-54.09684
2022-08-19 17:39:00+00:00,324.0714,17.8,11.7,47.84626,-54.09684
2022-08-19 17:49:00+00:00,322.6946,17.6,11.7,47.84626,-54.09684
2022-08-19 17:59:00+00:00,323.3214,17.6,11.7,47.84626,-54.09684
2022-08-19 18:09:00+00:00,322.8447,17.54,11.7,47.84626,-54.09684
2022-08-19 18:19:00+00:00,322.4164,17.52,11.7,47.84626,-54.09684
2022-08-19 18:29:00+00:00,321.543,17.56,11.7,47.84626,-54.09684
2022-08-19 18:39:00+00:00,319.5363,17.59,11.7,47.84626,-54.09684
2022-08-19 18:49:00+00:00,317.5696,17.6,11.7,47.84626,-54.09684
2022-08-19 18:59:00+00:00,316.2646,17.71,11.7,47.84626,-54.09684
2022-08-19 19:09:00+00:00,311.6947,17.84,11.7,47.84626,-54.09684
2022-08-19 19:19:00+00:00,304.7247,17.94,11.7,47.84626,-54.09684
2022-08-19 19:29:00+00:00,299.7013,18.0,11.7,47.84626,-54.09684
2022-08-19 19:39:00+00:00,299.6331,18.09,11.7,47.84626,-54.09684
2022-08-19 19:49:00+00:00,296.3397,18.18,11.7,47.84626,-54.09684
2022-08-19 19:59:00+00:00,289.7031,18.3,11.7,47.84626,-54.09684
2022-08-19 20:09:00+00:00,284.8564,18.47,11.7,47.84626,-54.09684
2022-08-19 20:19:01+00:00,282.7847,18.5,11.61,47.84626,-54.09684
2022-08-19 20:29:01+00:00,278.1981,18.5,11.61,47.84626,-54.09684
2022-08-19 20:39:01+00:00,271.8631,18.57,11.61,47.84626,-54.09684
2022-08-19 20:49:01+00:00,268.9931,18.59,11.61,47.84626,-54.09684
2022-08-19 20:59:01+00:00,265.8781,18.6,11.61,47.84626,-54.09684
2022-08-19 21:09:01+00:00,257.7031,18.63,11.61,47.84626,-54.09684
2022-08-19 21:19:01+00:00,251.4481,18.7,11.61,47.84626,-54.09684
2022-08-19 21:29:01+00:00,250.6064,18.8,11.61,47.84626,-54.09684
2022-08-19 21:39:01+00:00,247.4564,18.84,11.61,47.84626,-54.09684
2022-08-19 21:49:01+00:00,238.3731,18.9,11.61,47.84626,-54.09684
2022-08-19 21:59:01+00:00,233.0331,18.9,11.61,47.84626,-54.09684
2022-08-19 22:09:01+00:00,231.7714,18.9,11.61,47.84626,-54.09684
2022-08-19 22:19:00+00:00,229.3464,18.9,11.61,47.84626,-54.09684
2022-08-19 22:29:00+00:00,225.7414,18.91,11.61,47.84626,-54.09684
2022-08-19 22:39:00+00:00,225.6981,18.92,11.61,47.84626,-54.09684
2022-08-19 22:49:00+00:00,227.1982,18.94,11.61,47.84626,-54.09684
2022-08-19 22:59:00+00:00,225.9214,18.98,11.61,47.84626,-54.09684
2022-08-19 23:09:00+00:00,225.4248,19.0,11.61,47.84626,-54.09684
2022-08-19 23:19:00+00:00,228.6431,18.99,11.61,47.84626,-54.09684
2022-08-19 23:29:00+00:00,230.9181,18.99,11.61,47.84626,-54.09684
2022-08-19 23:39:00+00:00,229.9848,19.0,11.61,47.84626,-54.09684
2022-08-19 23:49:00+00:00,229.8048,19.0,11.61,47.84626,-54.09684
2022-08-19 23:59:00+00:00,232.9448,19.0,11.61,47.84626,-54.09684
